GFSGBSN_850_thetae_336.txt.gz
Theta_e
316 316 316 317 318 318 318 318 318 317 317 317 317 317 317 317 317 317 318 318 318 318 318 318 317 316 316 318 329 340 330 327 329 341 356 348 354 347 349 347 349 352 349 348 347 347 347
317 318 319 320 321 321 320 320 319 318 317 317 317 317 317 317 317 318 318 318 318 319 319 318 317 316 316 319 329 333 330 324 339 347 347 354 354 352 350 345 347 348 349 350 348 349 347
321 321 322 323 323 323 322 321 320 319 319 319 319 319 318 317 317 317 318 318 319 319 319 318 318 317 316 319 338 339 330 327 332 337 344 346 345 350 344 340 343 341 348 347 348 347 340
323 324 324 325 325 325 324 322 321 320 321 322 323 322 320 318 317 317 318 318 319 319 320 320 319 317 317 323 338 339 333 324 326 331 343 342 342 343 339 341 342 346 352 354 351 346 339
325 325 325 325 325 325 324 323 322 321 322 323 323 322 320 319 317 317 318 319 319 322 322 320 316 316 320 329 328 335 337 330 343 344 342 341 342 340 339 336 338 343 352 349 349 342 342
324 324 324 324 324 324 324 323 321 321 323 325 325 322 319 318 317 317 318 320 320 324 319 317 329 327 321 331 331 332 339 338 341 342 342 342 340 336 335 334 337 344 347 347 354 346 344
323 323 324 323 324 324 324 323 321 321 324 325 327 323 319 317 317 318 319 321 329 326 324 318 323 323 327 327 330 330 338 339 341 341 335 337 333 334 335 334 337 340 342 346 349 344 346
324 325 325 325 324 324 324 323 321 322 324 328 326 322 318 318 318 318 320 327 330 328 326 328 328 322 328 326 329 333 336 340 339 337 334 331 331 331 335 339 340 341 344 350 348 347 344
326 326 325 325 325 324 323 323 321 322 327 325 321 322 318 318 318 320 322 328 327 326 325 327 328 326 328 327 328 333 335 337 336 336 334 331 331 337 338 337 339 337 338 351 350 344 344
326 326 326 325 325 325 324 323 322 323 327 320 321 320 318 324 326 323 327 326 327 327 320 326 329 329 328 328 327 334 336 337 333 333 330 327 330 333 337 339 336 336 335 349 347 345 350
326 326 326 326 326 325 325 324 322 322 325 321 320 319 318 327 327 328 327 326 326 327 333 329 327 328 328 327 326 327 335 335 328 326 325 326 328 335 338 339 335 332 333 344 345 340 338
326 326 326 326 326 326 325 324 323 321 327 323 324 320 319 324 327 326 326 327 327 325 333 327 327 324 324 325 326 328 334 333 330 327 324 324 328 330 335 335 330 331 328 325 334 337 341
325 326 326 326 326 326 326 325 324 322 326 326 325 327 321 323 327 326 326 328 327 329 329 324 323 322 322 323 324 327 326 326 323 326 325 325 327 327 330 330 327 325 323 326 328 339 341
325 326 326 326 326 326 326 326 324 322 326 324 323 326 331 325 328 326 329 326 336 334 331 326 324 322 323 322 323 325 323 322 321 323 322 324 326 327 329 328 327 329 325 325 331 343 345
325 326 326 326 326 326 327 326 325 323 325 325 327 330 333 330 323 328 329 332 335 333 332 324 322 324 323 324 324 325 322 321 322 320 323 324 327 326 328 328 326 328 327 325 339 338 344
326 326 326 325 325 326 327 327 325 324 324 326 330 337 335 335 328 330 328 331 330 332 331 331 333 326 322 322 323 322 322 325 326 323 323 327 328 326 325 327 325 327 324 323 325 343 343
326 326 326 325 325 325 326 327 326 325 324 326 330 337 333 332 331 331 331 332 330 332 334 333 334 333 333 329 323 326 325 331 329 330 328 326 324 326 324 326 323 322 321 318 321 332 336
326 326 326 325 325 325 326 327 326 327 326 326 329 332 334 332 331 330 332 330 331 331 334 333 333 333 333 332 333 333 332 332 331 331 332 330 320 323 325 326 324 320 324 318 319 338 337
320 321 322 324 325 325 325 326 327 326 330 330 333 336 333 332 329 328 327 329 330 328 331 333 334 332 331 331 335 335 334 332 332 329 327 327 323 323 327 326 327 329 330 326 325 334 341
320 319 319 320 322 324 325 326 327 326 327 333 338 333 335 333 334 329 329 330 331 333 331 331 330 329 328 332 331 334 334 332 333 331 331 328 320 323 330 327 329 332 332 329 325 335 347
322 322 321 320 320 321 323 325 326 327 328 327 333 333 333 332 334 329 328 330 331 331 331 330 328 330 331 332 331 333 331 331 332 332 331 324 328 329 330 331 331 333 332 331 331 341 341
322 322 322 322 321 319 320 324 326 326 327 326 330 331 332 333 335 329 328 328 331 330 329 327 326 328 329 329 331 330 328 329 332 329 326 323 328 328 328 331 331 334 334 342 344 343 339
321 321 322 322 322 321 319 321 325 326 327 330 329 331 333 336 333 328 325 327 329 329 329 328 325 325 327 328 328 327 327 328 329 329 326 324 325 325 329 327 331 333 335 334 348 341 338
322 321 321 321 322 322 321 319 323 326 327 331 331 331 333 333 332 331 330 330 331 329 328 329 329 328 329 328 328 328 328 328 326 325 325 325 322 324 327 327 333 331 332 336 351 346 346
325 325 323 321 321 322 322 321 319 324 326 332 332 332 332 331 334 332 332 331 332 331 329 330 330 330 329 328 322 326 328 329 329 325 325 321 320 323 326 327 328 337 335 336 347 341 345
320 322 325 325 322 321 321 321 320 320 325 331 332 332 332 332 332 332 331 330 327 327 327 333 332 333 329 321 325 333 332 333 332 332 325 323 320 323 325 331 332 336 335 336 337 342 341
314 319 320 324 325 324 321 321 321 320 321 327 332 331 331 332 332 332 332 331 333 331 327 332 330 332 331 323 327 329 330 333 333 338 338 330 330 329 328 329 337 339 338 337 334 340 341
309 315 316 321 322 324 324 321 320 320 320 324 329 330 331 331 327 329 333 332 332 332 328 331 330 331 327 329 333 334 333 333 330 331 337 335 334 339 336 335 341 339 340 339 339 340 340
307 308 314 316 321 321 322 323 320 320 320 320 323 326 328 329 328 327 329 328 328 329 332 330 329 330 331 328 329 329 331 330 331 332 328 335 334 336 337 340 337 338 337 341 340 339 339

GFSGBSN_850_thetae_339.txt.gz
Theta_e
320 321 322 322 323 323 322 322 321 319 319 318 317 317 317 317 317 317 317 317 318 318 318 318 317 316 316 318 337 335 329 326 334 349 349 342 344 346 346 344 350 350 349 349 347 347 341
322 323 324 324 324 324 324 323 322 320 320 320 320 320 319 318 317 317 317 317 318 318 318 318 317 316 316 317 332 335 330 327 331 342 351 345 348 352 349 346 348 347 346 346 348 349 347
325 325 325 324 324 324 324 323 322 321 321 322 322 322 321 319 318 317 317 317 318 318 319 318 317 317 316 320 333 333 330 328 332 346 349 351 351 352 347 340 344 342 343 347 346 345 343
324 323 324 323 323 324 323 323 322 321 322 323 323 322 321 319 318 317 317 317 318 319 320 320 319 317 317 319 338 337 330 326 323 335 346 346 348 352 352 342 345 344 345 349 345 345 340
323 323 324 324 324 323 323 323 322 321 323 325 325 324 321 318 317 317 317 318 319 320 321 320 317 317 318 324 337 336 333 327 322 327 333 341 343 345 337 334 338 347 348 350 350 345 344
325 325 325 325 324 324 323 323 322 321 323 325 326 325 321 317 317 317 318 319 320 323 320 317 320 324 323 330 329 334 336 331 324 332 336 339 341 333 333 331 336 342 351 349 351 349 344
325 325 325 325 325 324 324 323 322 322 325 328 327 323 320 317 317 318 318 322 327 326 324 317 321 323 325 328 325 330 337 338 338 339 337 335 332 334 335 333 334 338 344 348 344 342 346
326 326 326 325 325 325 324 323 322 322 326 320 320 321 318 318 318 318 322 328 329 327 326 327 327 325 323 326 330 331 334 337 338 338 333 332 332 331 330 332 336 337 341 345 346 347 345
326 326 326 326 326 325 325 324 323 321 324 320 320 320 318 318 318 322 326 325 326 326 323 326 327 327 326 327 326 329 331 338 336 336 336 333 332 330 334 337 339 338 340 347 346 346 342
325 326 326 326 326 326 325 324 323 322 325 322 319 319 319 326 324 324 327 326 326 326 319 322 328 328 327 327 327 331 334 336 333 335 332 330 329 329 330 335 334 336 335 346 347 345 344
325 326 325 326 326 326 326 325 324 322 324 325 324 319 322 326 327 326 326 326 326 326 329 327 326 327 327 326 326 329 334 335 332 330 326 328 326 326 328 331 336 336 345 347 345 340 343
325 326 326 325 326 326 326 326 324 323 325 325 325 323 319 325 327 326 326 326 327 324 332 328 326 324 324 324 325 327 332 335 331 327 325 324 326 326 325 328 334 335 339 326 331 334 339
325 325 325 325 325 325 326 326 325 323 325 325 324 327 322 325 326 326 327 329 326 329 328 325 324 322 323 323 324 327 329 330 324 324 324 323 324 325 328 329 326 324 323 323 331 340 337
325 326 325 325 325 325 326 326 325 325 325 325 327 328 330 324 328 325 328 325 333 330 329 323 321 320 322 321 322 323 325 327 323 322 320 323 325 326 326 326 327 327 324 324 330 338 344
326 326 325 325 325 324 325 326 326 328 324 326 331 335 333 329 323 326 329 330 333 332 331 322 322 323 323 322 323 324 322 321 320 319 323 322 326 324 323 326 325 326 324 325 335 335 341
325 325 325 324 325 324 324 326 326 327 327 326 331 336 335 334 328 327 327 330 331 328 331 329 333 326 322 322 322 323 321 322 323 320 321 324 326 325 325 325 323 325 320 322 328 341 342
320 320 321 321 322 323 324 325 326 325 326 327 330 337 333 334 328 330 331 330 331 331 332 331 332 333 331 332 320 320 322 328 323 327 323 322 322 324 323 327 326 320 320 317 323 329 333
321 321 321 320 321 321 323 324 326 326 324 331 334 329 334 330 330 325 329 330 328 327 332 331 330 331 332 331 332 331 331 329 329 328 331 326 319 324 326 324 324 319 328 316 316 332 331
323 324 323 323 322 321 322 324 325 326 326 336 337 336 333 331 328 328 325 328 329 328 326 330 328 327 328 331 333 331 331 329 330 327 326 325 321 325 328 326 325 328 329 320 325 332 339
322 323 324 324 324 322 321 323 325 326 324 334 337 331 332 332 332 329 326 328 330 330 327 329 330 329 330 330 328 331 331 332 331 332 328 325 319 324 329 329 327 331 331 327 329 337 343
322 322 322 323 324 324 323 322 324 325 326 326 332 330 331 330 331 328 326 327 329 329 328 325 326 330 331 328 328 328 328 327 331 329 326 323 327 327 327 327 329 331 333 332 329 337 337
322 322 322 322 323 324 324 322 322 325 327 327 330 329 332 332 333 324 320 325 328 328 326 324 323 328 327 328 327 327 326 328 330 326 324 320 325 326 327 326 329 333 334 340 341 337 336
318 321 323 323 322 323 323 323 321 325 327 330 330 332 332 332 331 327 325 328 330 326 327 327 324 325 327 327 327 327 326 326 326 327 325 322 321 322 327 324 328 332 333 339 343 338 336
317 318 320 323 324 323 322 323 322 322 328 331 330 330 332 331 331 332 330 330 329 328 327 328 328 327 328 328 328 325 325 324 323 322 323 321 320 319 324 325 333 331 329 333 340 339 344
315 316 317 321 322 324 323 322 323 321 326 332 331 330 330 329 332 332 331 329 329 331 329 329 332 331 331 326 321 324 325 329 327 324 319 319 318 320 324 325 326 336 334 345 346 347 343
313 314 315 318 319 321 324 323 322 322 321 328 331 331 331 331 331 332 330 329 326 326 327 332 333 332 328 320 323 331 330 333 330 331 318 319 316 322 322 329 330 332 334 339 339 348 339
312 312 313 314 317 318 323 324 323 322 321 322 331 331 331 331 330 331 330 331 332 329 326 328 330 331 330 323 326 327 329 330 331 336 336 328 330 325 325 327 333 333 338 335 337 336 341
309 310 310 311 314 315 319 322 323 322 321 320 324 328 329 330 327 328 331 332 331 330 327 330 328 328 325 327 330 331 332 330 329 328 335 333 334 336 332 334 339 336 337 336 333 340 343
307 307 308 309 310 313 316 320 321 323 320 320 320 323 325 326 327 326 325 325 327 329 327 329 328 327 329 324 326 326 329 327 328 332 327 335 331 334 335 337 334 336 338 340 341 340 340

GFSGBSN_850_thetae_342.txt.gz
Theta_e
324 324 324 324 324 323 323 323 322 321 321 321 321 321 319 318 317 317 317 317 318 317 317 317 317 316 316 318 331 336 329 329 342 350 350 344 344 346 346 345 349 350 345 346 346 346 347
323 323 323 323 323 323 323 322 322 321 321 321 322 322 321 320 319 317 317 317 318 318 317 317 317 316 316 317 328 335 328 327 339 347 349 347 349 351 348 346 347 344 341 341 344 345 346
323 324 324 324 324 323 323 323 322 321 321 322 323 323 321 320 319 318 317 317 317 318 318 318 317 316 316 320 328 333 327 329 335 345 348 347 347 351 351 343 343 342 341 342 342 345 345
325 325 325 324 324 324 323 323 321 321 322 324 325 325 323 320 319 318 317 317 318 318 318 318 318 317 316 318 328 329 330 329 329 335 347 346 350 352 350 344 343 344 343 347 344 346 345
325 325 325 325 325 324 324 323 322 321 324 325 326 326 323 319 317 317 316 317 318 319 320 320 319 317 317 319 330 336 332 329 327 329 340 343 342 345 337 335 342 345 349 345 344 344 345
326 326 326 325 325 325 324 323 322 321 325 326 323 322 321 318 317 316 317 318 319 322 319 317 317 318 319 324 336 335 329 325 322 323 329 336 340 333 331 330 339 346 349 348 348 349 345
325 325 325 326 326 325 325 324 323 322 323 319 319 320 319 317 316 317 318 321 326 326 321 317 318 322 323 327 328 333 328 324 336 336 335 337 333 336 337 332 334 343 347 348 345 344 346
325 325 325 325 326 326 326 325 323 322 324 321 320 320 318 318 317 318 320 326 328 325 325 326 326 322 323 325 328 327 334 334 336 337 332 331 332 331 330 330 333 337 346 346 345 344 344
325 325 325 325 325 326 326 326 324 323 324 324 319 318 318 318 318 320 323 325 325 325 323 324 326 326 324 325 326 327 333 337 335 337 333 334 333 330 331 333 336 336 343 343 344 344 342
325 325 325 325 325 325 326 326 324 324 324 325 324 318 322 322 323 324 326 325 326 325 317 320 326 327 326 326 326 328 330 334 334 335 331 332 330 330 328 331 334 335 334 342 347 344 345
325 325 325 325 324 324 325 326 325 326 325 325 325 319 324 325 324 326 326 326 326 325 326 325 326 327 326 326 326 328 330 333 332 331 328 330 326 326 326 326 332 336 341 345 342 340 341
325 325 325 325 324 324 325 326 325 328 326 325 324 324 323 327 327 326 326 326 327 323 328 327 324 323 323 323 323 327 332 333 332 329 325 324 326 325 325 326 333 335 333 330 330 333 340
325 325 325 324 324 324 324 325 326 327 327 325 327 326 323 327 326 325 326 329 325 327 326 324 322 323 323 322 322 324 329 329 329 324 324 322 325 323 326 325 327 330 321 325 336 342 340
325 324 322 322 323 323 324 325 326 325 327 326 329 332 328 324 325 326 327 325 332 329 329 320 319 320 324 321 322 323 326 327 324 320 319 323 325 325 324 326 325 329 322 323 329 337 343
321 321 321 321 321 322 323 324 326 325 326 327 333 333 332 329 324 326 328 328 330 331 329 321 322 321 321 321 322 322 324 324 324 322 321 321 325 324 323 324 324 323 323 323 333 332 340
322 322 322 322 322 322 323 324 325 325 326 331 332 333 333 334 327 325 325 328 330 328 330 328 328 324 322 321 321 322 321 321 323 318 320 321 325 324 324 322 319 323 320 324 327 340 344
324 324 324 324 324 324 323 323 324 326 325 336 332 335 333 332 326 330 330 330 330 329 331 330 331 332 328 329 319 320 323 324 321 321 320 320 322 324 323 323 323 319 319 317 324 328 336
323 323 324 324 324 325 324 323 324 326 323 337 336 330 332 330 328 322 326 328 328 327 330 329 329 330 330 329 330 328 328 326 327 324 326 323 318 323 325 322 321 319 322 318 317 327 329
323 323 323 323 324 324 325 324 324 325 325 335 337 333 332 330 329 328 326 327 328 326 325 328 330 326 328 330 332 331 331 331 329 325 326 321 321 325 327 325 325 328 325 319 324 329 338
320 322 323 323 323 323 324 325 324 325 326 332 335 329 333 332 331 329 326 326 329 329 325 327 328 328 328 328 325 329 329 330 329 330 325 324 318 324 328 328 326 330 329 329 331 333 337
320 319 320 322 323 323 323 325 323 324 327 328 331 328 329 330 329 326 324 324 327 327 325 324 326 327 329 327 327 327 325 326 330 326 324 322 326 326 326 325 326 329 336 330 331 333 337
323 322 321 321 322 324 324 324 324 323 327 328 330 330 332 332 330 324 322 326 327 326 325 324 327 326 324 327 326 326 325 326 328 325 322 318 323 324 328 324 327 334 332 339 337 335 335
323 323 323 322 321 323 324 323 324 322 325 329 330 331 331 330 328 327 327 327 329 326 326 326 323 324 326 327 326 326 326 325 325 326 322 320 320 321 327 322 328 332 333 334 341 335 334
322 322 321 322 322 322 322 324 323 322 324 330 329 330 331 329 329 330 330 329 328 327 327 329 329 326 327 330 325 324 324 323 321 322 321 320 319 317 323 324 332 329 330 330 338 340 342
316 318 320 320 321 321 321 323 324 322 321 328 330 330 330 328 330 331 331 327 328 329 328 329 332 330 327 325 320 323 323 327 325 317 319 317 316 319 323 323 325 334 335 342 339 341 340
311 313 316 317 318 319 320 320 323 323 322 322 329 330 330 329 326 331 329 328 326 326 325 330 331 331 328 319 321 328 329 330 329 329 318 318 314 320 320 327 329 331 333 336 340 345 340
309 310 312 313 315 316 317 318 321 323 322 321 326 330 330 330 328 331 327 330 330 327 325 326 329 330 328 325 326 329 332 329 332 333 334 327 327 323 323 325 327 328 336 333 340 338 340
307 308 309 310 311 312 313 316 318 322 323 321 321 324 326 328 326 326 327 331 330 329 324 327 325 327 324 326 328 330 330 329 329 327 333 331 333 334 328 331 334 335 336 334 331 338 342
306 306 307 307 309 310 311 313 316 320 322 322 320 322 322 324 325 326 326 325 324 325 328 327 326 326 328 323 324 324 328 325 326 331 326 335 330 333 333 333 331 335 335 338 341 342 343

GFSGBSN_850_thetae_345.txt.gz
Theta_e
323 324 324 324 324 323 323 322 322 321 321 321 321 321 321 320 318 317 317 317 317 317 317 317 316 316 316 318 327 328 330 336 349 350 348 346 346 347 348 348 345 346 345 348 346 348 349
324 324 324 324 324 324 323 322 322 321 321 322 323 323 322 320 319 318 317 317 317 317 317 317 317 316 316 320 325 333 329 335 348 351 350 346 350 348 346 347 345 344 341 345 346 347 347
325 325 325 325 325 324 324 322 322 321 322 323 324 324 324 322 319 318 317 317 317 317 317 317 317 317 316 319 328 332 329 332 344 350 350 348 346 349 349 344 342 342 341 343 346 347 346
325 325 325 325 325 325 325 323 322 322 324 326 326 326 325 322 318 318 317 317 317 317 318 318 317 317 316 317 326 330 329 333 340 349 346 344 346 351 348 344 344 345 343 348 342 346 344
325 325 325 325 325 325 325 324 323 323 323 320 320 321 322 320 317 317 316 317 317 318 319 319 318 317 316 318 322 330 329 332 333 336 343 343 342 343 341 343 346 346 347 345 343 345 344
325 325 325 325 325 325 326 325 324 323 323 321 320 320 321 317 316 316 317 317 318 320 319 319 317 317 317 321 326 334 329 329 331 332 331 336 338 341 337 341 343 345 348 348 348 349 346
325 325 325 324 325 325 325 325 324 324 323 324 319 320 318 317 316 317 318 320 324 322 318 316 316 321 322 326 330 334 329 325 323 330 334 338 342 344 343 341 340 340 344 346 346 345 345
325 325 325 324 324 324 325 325 325 325 324 324 320 318 317 317 317 317 321 327 326 325 325 325 324 320 323 326 328 328 327 334 337 339 335 336 341 340 336 335 337 338 342 344 345 345 345
325 325 325 324 324 323 324 325 325 327 325 324 323 318 318 317 317 320 323 325 325 325 324 324 325 325 324 324 327 330 328 336 337 339 339 343 341 333 335 335 335 337 342 345 345 346 345
325 325 325 324 323 323 323 325 325 327 327 325 325 318 323 320 322 323 325 325 325 324 325 324 326 326 324 325 326 327 334 337 336 339 339 341 338 335 334 331 333 338 337 342 347 348 351
325 325 324 323 322 322 323 324 325 326 328 325 324 319 326 325 325 326 325 326 326 325 328 325 326 326 325 325 327 327 331 334 336 335 335 337 332 328 329 330 335 343 338 344 346 347 347
324 323 322 322 322 322 322 323 325 325 327 326 326 323 325 326 326 326 325 327 326 330 330 327 324 325 325 323 324 330 331 332 333 335 330 333 326 330 330 331 339 340 343 342 340 342 350
321 321 322 323 323 323 322 323 325 325 326 328 328 326 326 328 326 325 325 328 332 332 327 325 324 325 325 325 325 329 332 333 335 335 333 329 330 327 327 339 340 337 338 344 346 348 347
323 323 324 324 325 324 323 323 324 325 326 329 334 329 326 324 324 325 326 331 336 331 330 321 322 324 327 325 324 326 332 334 328 328 331 330 335 327 327 333 341 341 335 334 335 338 343
324 324 324 324 325 325 325 324 324 325 328 330 333 332 331 331 327 325 327 335 335 333 330 323 323 325 324 323 323 325 330 329 332 330 335 329 329 327 325 326 331 333 332 331 341 339 345
323 323 323 324 324 325 325 325 324 325 329 333 333 333 331 328 324 325 332 331 332 330 330 328 328 325 326 324 324 325 325 326 328 328 331 327 330 327 325 323 324 329 331 336 341 346 345
323 323 323 323 324 324 325 325 324 324 326 335 334 333 331 329 328 330 336 334 332 327 330 332 333 333 330 331 323 325 326 326 324 322 325 326 327 330 325 329 329 330 329 332 337 339 340
321 321 322 322 323 324 325 325 325 324 325 336 335 335 332 330 333 326 332 328 327 329 328 330 331 332 332 330 330 330 330 330 328 323 326 325 328 332 331 327 325 324 327 332 331 339 338
325 323 322 322 323 324 325 325 325 324 326 334 335 332 333 331 336 335 330 330 328 329 328 332 333 332 331 333 337 333 332 330 328 327 330 327 329 334 334 332 329 333 330 324 333 338 344
325 325 325 324 323 323 325 325 325 324 326 330 334 337 332 331 329 331 331 331 332 327 325 327 330 331 332 333 330 333 333 331 328 329 324 326 328 333 334 335 331 335 336 336 338 340 345
325 325 325 325 325 323 324 325 325 325 326 328 331 330 329 335 333 326 326 328 330 330 327 326 330 329 331 334 334 332 330 332 331 326 326 329 334 332 330 330 330 332 339 336 336 339 339
322 324 325 325 325 325 324 325 326 325 326 327 331 331 331 331 329 328 328 331 331 329 327 327 329 328 329 330 330 330 329 330 331 330 328 326 333 331 334 329 333 338 339 340 336 340 341
320 321 323 324 324 324 324 324 324 324 324 327 329 329 330 330 331 332 332 331 331 328 327 326 325 328 331 329 327 327 326 326 326 328 330 329 331 333 336 330 334 338 339 341 344 340 341
315 317 320 323 324 324 323 323 324 323 322 326 328 329 330 335 333 333 332 330 330 329 329 330 328 330 328 327 325 323 324 324 324 325 324 329 330 329 333 333 335 335 336 338 342 339 342
313 313 314 317 321 322 322 322 322 324 322 322 327 329 329 332 331 333 332 330 329 329 330 331 331 330 329 324 329 333 332 331 327 323 325 324 329 332 334 333 332 338 340 343 344 343 346
310 311 312 313 315 318 320 320 320 322 323 321 323 328 329 331 328 330 331 330 332 332 331 330 329 330 328 327 331 335 336 334 332 331 323 324 326 332 332 332 334 338 337 339 343 343 345
308 308 309 310 311 313 315 316 318 319 322 322 322 326 328 330 327 330 328 331 330 329 331 327 328 330 328 334 336 338 338 333 337 337 335 334 334 333 332 333 331 333 335 336 348 344 344
306 307 307 308 308 310 311 312 314 316 321 322 321 321 323 326 325 326 326 328 330 329 331 328 329 330 332 336 336 337 337 335 336 334 339 339 340 338 334 337 334 337 340 342 340 340 343
304 305 306 306 306 307 309 309 311 314 319 321 322 321 322 322 323 324 325 327 330 326 325 327 328 328 330 333 331 332 335 332 335 339 332 342 339 343 342 340 337 336 338 337 340 343 343